Regional Weather Roundup
Issued by NWS

Home | Current Version | Previous Version | Text Only | Print | Product List | Glossary On
Versions: 1 2 3 4 5 6 7 8 9 10 11 12 13 14 15 16 17 18 19 20 21 22 23 24 25 26 27 28 29 30 31 32 33 34 35 36 37 38 39 40 41 42 43 44 45 46 47 48 49 50
000
ASCA42 TJSJ 281210
RWRPR
PUERTO RICO/U.S. VIRGIN ISLANDS HOURLY WEATHER ROUNDUP
NATIONAL WEATHER SERVICE SAN JUAN PR
800 AM AST SAT FEB 28 2015

PRZ001-004-281300-
PUERTO RICO

CITY           SKY/WX    TMP DP  RH WIND       PRES   REMARKS
SAN JUAN LMM   PTSUNNY   75  73  94 E12       30.12R
AGUADILLA      PTSUNNY   73  70  88 E10       30.13R
CEIBA          PTSUNNY   79  70  73 E12       30.14R
$$

PRZ006-007-281300-
U.S. VIRGIN ISLANDS

CITY           SKY/WX    TMP DP  RH WIND       PRES   REMARKS
CHARLOTTE AMA  CLOUDY    77  70  78 E10       30.12
$$

HOURLY WEATHER ROUNDUP FOR THE NEWS MEDIA

CITY           SKY/WX    TMP DP  RH WIND       PRES   REMARKS
ORLANDO        CLOUDY    61  59  93 NE5       30.29R
NEW YORK       PTCLDY    16   2  54 N6        30.78R WCI   7
NEWARK         PTCLDY    13  -2  51 NW10      30.78R WCI   0
CHICAGO        FAIR      -7 -11  83 S3        30.69R
HARTFORD       CLEAR      9  -2  61 NW6       30.69R WCI  -1
BOSTON         CLEAR     12  -1  56 W10       30.71R WCI  -1
DALLAS         CLOUDY    28  25  86 NE9       30.39S WCI  20
PHILADELPHIA   PTCLDY    17  -2  43 N10       30.81R WCI   5
LOS ANGELES    PTCLDY    54  47  77 W9        29.75F
WASHINGTON DC  PTCLDY    15  -1  49 N6        30.79R WCI   6


USA.gov is the U.S. government's official web portal to all federal, state and local government web resources and services.